Year,Month,Day,Hour,Minute,Value (Times are PST for temperature in C)
2011,07,11,00,00,16.20
2011,07,11,00,01,16.20
2011,07,11,00,02,16.20
2011,07,11,00,03,16.20
2011,07,11,00,04,16.20
2011,07,11,00,05,16.20
2011,07,11,00,06,16.20
2011,07,11,00,07,16.20
2011,07,11,00,08,16.20
2011,07,11,00,09,16.20
2011,07,11,00,10,16.20
2011,07,11,00,11,16.10
2011,07,11,00,12,16.10
2011,07,11,00,13,16.10
2011,07,11,00,14,16.10
2011,07,11,00,15,16.10
2011,07,11,00,16,16.10
2011,07,11,00,17,16.10
2011,07,11,00,18,16.10
2011,07,11,00,19,16.10
2011,07,11,00,20,16.10
2011,07,11,00,21,16.10
2011,07,11,00,22,16.10
2011,07,11,00,23,16.10
2011,07,11,00,24,16.10
2011,07,11,00,25,16.00
2011,07,11,00,26,16.00
2011,07,11,00,27,16.00
2011,07,11,00,28,16.00
2011,07,11,00,29,16.00
2011,07,11,00,30,16.00
2011,07,11,00,31,16.00
2011,07,11,00,32,16.00
2011,07,11,00,33,16.00
2011,07,11,00,34,16.00
2011,07,11,00,35,16.00
2011,07,11,00,36,16.00
2011,07,11,00,37,16.00
2011,07,11,00,38,15.90
2011,07,11,00,39,15.90
2011,07,11,00,40,15.90
2011,07,11,00,41,15.90
2011,07,11,00,42,15.90
2011,07,11,00,43,15.90
2011,07,11,00,44,15.90
2011,07,11,00,45,15.90
2011,07,11,00,46,15.90
2011,07,11,00,47,15.90
2011,07,11,00,48,15.90
2011,07,11,00,49,15.90
2011,07,11,00,50,16.00
2011,07,11,00,51,16.00
2011,07,11,00,52,16.00
2011,07,11,00,53,16.00
2011,07,11,00,54,16.00
2011,07,11,00,55,16.00
2011,07,11,00,56,16.00
2011,07,11,00,57,15.90
2011,07,11,00,58,15.90
2011,07,11,00,59,15.90
2011,07,11,01,00,15.90
2011,07,11,01,01,15.90
2011,07,11,01,02,15.80
2011,07,11,01,03,15.80
2011,07,11,01,04,15.80
2011,07,11,01,05,15.80
2011,07,11,01,06,15.80
2011,07,11,01,07,15.80
2011,07,11,01,08,15.80
2011,07,11,01,09,15.80
2011,07,11,01,10,15.80
2011,07,11,01,11,15.80
2011,07,11,01,12,15.80
2011,07,11,01,13,15.80
2011,07,11,01,14,15.70
2011,07,11,01,15,15.70
2011,07,11,01,16,15.70
2011,07,11,01,17,15.70
2011,07,11,01,18,15.70
2011,07,11,01,19,15.70
2011,07,11,01,20,15.70
2011,07,11,01,21,15.70
2011,07,11,01,22,15.70
2011,07,11,01,23,15.70
2011,07,11,01,24,15.70
2011,07,11,01,25,15.80
2011,07,11,01,26,15.80
2011,07,11,01,27,15.80
2011,07,11,01,28,15.80
2011,07,11,01,29,15.80
2011,07,11,01,30,15.80
2011,07,11,01,31,15.80
2011,07,11,01,32,15.80
2011,07,11,01,33,15.80
2011,07,11,01,34,15.80
2011,07,11,01,35,15.80
2011,07,11,01,36,15.80
2011,07,11,01,37,15.80
2011,07,11,01,38,15.80
2011,07,11,01,39,15.80
2011,07,11,01,40,15.80
2011,07,11,01,41,15.80
2011,07,11,01,42,15.80
2011,07,11,01,43,15.80
2011,07,11,01,44,15.80
2011,07,11,01,45,15.80
2011,07,11,01,46,15.80
2011,07,11,01,47,15.80
2011,07,11,01,48,15.80
2011,07,11,01,49,15.80
2011,07,11,01,50,15.80
2011,07,11,01,51,15.80
2011,07,11,01,52,15.80
2011,07,11,01,53,15.90
2011,07,11,01,54,15.90
2011,07,11,01,55,15.90
2011,07,11,01,56,15.90
2011,07,11,01,57,15.90
2011,07,11,01,58,15.90
2011,07,11,01,59,15.90
2011,07,11,02,00,15.90
2011,07,11,02,01,15.90
2011,07,11,02,02,15.90
2011,07,11,02,03,15.90
2011,07,11,02,04,15.90
2011,07,11,02,05,15.90
2011,07,11,02,06,15.90
2011,07,11,02,07,15.90
2011,07,11,02,08,15.80
2011,07,11,02,09,15.80
2011,07,11,02,10,15.80
2011,07,11,02,11,15.80
2011,07,11,02,12,15.80
2011,07,11,02,13,15.80
2011,07,11,02,14,15.80
2011,07,11,02,15,15.80
2011,07,11,02,16,15.80
2011,07,11,02,17,15.80
2011,07,11,02,18,15.80
2011,07,11,02,19,15.80
2011,07,11,02,20,15.80
2011,07,11,02,21,15.80
2011,07,11,02,22,15.80
2011,07,11,02,23,15.80
2011,07,11,02,24,15.80
2011,07,11,02,25,15.80
2011,07,11,02,26,15.80
2011,07,11,02,27,15.80
2011,07,11,02,28,15.80
2011,07,11,02,29,15.80
2011,07,11,02,30,15.80
2011,07,11,02,31,15.80
2011,07,11,02,32,15.80
2011,07,11,02,33,15.80
2011,07,11,02,34,15.80
2011,07,11,02,35,15.80
2011,07,11,02,36,15.80
2011,07,11,02,37,15.80
2011,07,11,02,38,15.80
2011,07,11,02,39,15.80
2011,07,11,02,40,15.80
2011,07,11,02,41,15.80
2011,07,11,02,42,15.70
2011,07,11,02,43,15.70
2011,07,11,02,44,15.70
2011,07,11,02,45,15.70
2011,07,11,02,46,15.70
2011,07,11,02,47,15.70
2011,07,11,02,48,15.70
2011,07,11,02,49,15.70
2011,07,11,02,50,15.70
2011,07,11,02,51,15.70
2011,07,11,02,52,15.70
2011,07,11,02,53,15.70
2011,07,11,02,54,15.70
2011,07,11,02,55,15.70
2011,07,11,02,56,15.60
2011,07,11,02,57,15.60
2011,07,11,02,58,15.60
2011,07,11,02,59,15.60
2011,07,11,03,00,15.60
2011,07,11,03,01,15.60
2011,07,11,03,02,15.60
2011,07,11,03,03,15.60
2011,07,11,03,04,15.60
2011,07,11,03,05,15.60
2011,07,11,03,06,15.60
2011,07,11,03,07,15.60
2011,07,11,03,08,15.60
2011,07,11,03,09,15.60
2011,07,11,03,10,15.60
2011,07,11,03,11,15.60
2011,07,11,03,12,15.60
2011,07,11,03,13,15.60
2011,07,11,03,14,15.60
2011,07,11,03,15,15.50
2011,07,11,03,16,15.50
2011,07,11,03,17,15.50
2011,07,11,03,18,15.50
2011,07,11,03,19,15.50
2011,07,11,03,20,15.50
2011,07,11,03,21,15.50
2011,07,11,03,22,15.40
2011,07,11,03,23,15.40
2011,07,11,03,24,15.40
2011,07,11,03,25,15.40
2011,07,11,03,26,15.40
2011,07,11,03,27,15.30
2011,07,11,03,28,15.30
2011,07,11,03,29,15.30
2011,07,11,03,30,15.30
2011,07,11,03,31,15.30
2011,07,11,03,32,15.30
2011,07,11,03,33,15.30
2011,07,11,03,34,15.30
2011,07,11,03,35,15.30
2011,07,11,03,36,15.30
2011,07,11,03,37,15.30
2011,07,11,03,38,15.30
2011,07,11,03,39,15.30
2011,07,11,03,40,15.20
2011,07,11,03,41,15.20
2011,07,11,03,42,15.20
2011,07,11,03,43,15.20
2011,07,11,03,44,15.20
2011,07,11,03,45,15.20
2011,07,11,03,46,15.20
2011,07,11,03,47,15.10
2011,07,11,03,48,15.10
2011,07,11,03,49,15.10
2011,07,11,03,50,15.10
2011,07,11,03,51,15.10
2011,07,11,03,52,15.10
2011,07,11,03,53,15.00
2011,07,11,03,54,15.00
2011,07,11,03,55,15.10
2011,07,11,03,56,15.00
2011,07,11,03,57,15.00
2011,07,11,03,58,15.00
2011,07,11,03,59,15.00
2011,07,11,04,00,15.00
2011,07,11,04,01,15.00
2011,07,11,04,02,15.00
2011,07,11,04,03,15.00
2011,07,11,04,04,15.00
2011,07,11,04,05,15.10
2011,07,11,04,06,15.10
2011,07,11,04,07,15.00
2011,07,11,04,08,15.10
2011,07,11,04,09,15.10
2011,07,11,04,10,15.10
2011,07,11,04,11,15.20
2011,07,11,04,12,15.20
2011,07,11,04,13,15.20
2011,07,11,04,14,15.30
2011,07,11,04,15,15.30
2011,07,11,04,16,15.40
2011,07,11,04,17,15.40
2011,07,11,04,18,15.50
2011,07,11,04,19,15.50
2011,07,11,04,20,15.50
2011,07,11,04,21,15.60
2011,07,11,04,22,15.60
2011,07,11,04,23,15.60
2011,07,11,04,24,15.60
2011,07,11,04,25,15.60
2011,07,11,04,26,15.70
2011,07,11,04,27,15.70
2011,07,11,04,28,15.70
2011,07,11,04,29,15.70
2011,07,11,04,30,15.70
2011,07,11,04,31,15.70
2011,07,11,04,32,15.70
2011,07,11,04,33,15.70
2011,07,11,04,34,15.70
2011,07,11,04,35,15.70
2011,07,11,04,36,15.70
2011,07,11,04,37,15.70
2011,07,11,04,38,15.60
2011,07,11,04,39,15.60
2011,07,11,04,40,15.60
2011,07,11,04,41,15.60
2011,07,11,04,42,15.60
2011,07,11,04,43,15.60
2011,07,11,04,44,15.60
2011,07,11,04,45,15.60
2011,07,11,04,46,15.60
2011,07,11,04,47,15.50
2011,07,11,04,48,15.50
2011,07,11,04,49,15.50
2011,07,11,04,50,15.50
2011,07,11,04,51,15.50
2011,07,11,04,52,15.50
2011,07,11,04,53,15.50
2011,07,11,04,54,15.50
2011,07,11,04,55,15.50
2011,07,11,04,56,15.50
2011,07,11,04,57,15.50
2011,07,11,04,58,15.50
2011,07,11,04,59,15.50
2011,07,11,05,00,15.50
2011,07,11,05,01,15.60
2011,07,11,05,02,15.60
2011,07,11,05,03,15.60
2011,07,11,05,04,15.60
2011,07,11,05,05,15.60
2011,07,11,05,06,15.70
2011,07,11,05,07,15.70
2011,07,11,05,08,15.80
2011,07,11,05,09,15.80
2011,07,11,05,10,15.80
2011,07,11,05,11,15.90
2011,07,11,05,12,15.90
2011,07,11,05,13,15.90
2011,07,11,05,14,15.90
2011,07,11,05,15,16.00
2011,07,11,05,16,16.00
2011,07,11,05,17,16.00
2011,07,11,05,18,16.00
2011,07,11,05,19,16.00
2011,07,11,05,20,16.10
2011,07,11,05,21,16.10
2011,07,11,05,22,16.10
2011,07,11,05,23,16.10
2011,07,11,05,24,16.10
2011,07,11,05,25,16.10
2011,07,11,05,26,16.10
2011,07,11,05,27,16.10
2011,07,11,05,28,16.20
2011,07,11,05,29,16.20
2011,07,11,05,30,16.20
2011,07,11,05,31,16.20
2011,07,11,05,32,16.20
2011,07,11,05,33,16.20
2011,07,11,05,34,16.20
2011,07,11,05,35,16.20
2011,07,11,05,36,16.20
2011,07,11,05,37,16.20
2011,07,11,05,38,16.30
2011,07,11,05,39,16.30
2011,07,11,05,40,16.30
2011,07,11,05,41,16.30
2011,07,11,05,42,16.30
2011,07,11,05,43,16.30
2011,07,11,05,44,16.30
2011,07,11,05,45,16.30
2011,07,11,05,46,16.30
2011,07,11,05,47,16.30
2011,07,11,05,48,16.30
2011,07,11,05,49,16.30
2011,07,11,05,50,16.30
2011,07,11,05,51,16.30
2011,07,11,05,52,16.30
2011,07,11,05,53,16.30
2011,07,11,05,54,16.30
2011,07,11,05,55,16.30
2011,07,11,05,56,16.30
2011,07,11,05,57,16.30
2011,07,11,05,58,16.30
2011,07,11,05,59,16.30
2011,07,11,06,00,16.30
2011,07,11,06,01,16.20
2011,07,11,06,02,16.20
2011,07,11,06,03,16.20
2011,07,11,06,04,16.20
2011,07,11,06,05,16.20
2011,07,11,06,06,16.20
2011,07,11,06,07,16.20
2011,07,11,06,08,16.20
2011,07,11,06,09,16.20
2011,07,11,06,10,16.20
2011,07,11,06,11,16.20
2011,07,11,06,12,16.20
2011,07,11,06,13,16.20
2011,07,11,06,14,16.20
2011,07,11,06,15,16.20
2011,07,11,06,16,16.20
2011,07,11,06,17,16.20
2011,07,11,06,18,16.20
2011,07,11,06,19,16.20
2011,07,11,06,20,16.20
2011,07,11,06,21,16.20
2011,07,11,06,22,16.20
2011,07,11,06,23,16.20
2011,07,11,06,24,16.20
2011,07,11,06,25,16.20
2011,07,11,06,26,16.20
2011,07,11,06,27,16.20
2011,07,11,06,28,16.20
2011,07,11,06,29,16.20
2011,07,11,06,30,16.20
2011,07,11,06,31,16.20
2011,07,11,06,32,16.20
2011,07,11,06,33,16.20
2011,07,11,06,34,16.20
2011,07,11,06,35,16.20
2011,07,11,06,36,16.20
2011,07,11,06,37,16.20
2011,07,11,06,38,16.20
2011,07,11,06,39,16.20
2011,07,11,06,40,16.20
2011,07,11,06,41,16.20
2011,07,11,06,42,16.20
2011,07,11,06,43,16.20
2011,07,11,06,44,16.20
2011,07,11,06,45,16.20
2011,07,11,06,46,16.20
2011,07,11,06,47,16.20
2011,07,11,06,48,16.20
2011,07,11,06,49,16.20
2011,07,11,06,50,16.20
2011,07,11,06,51,16.20
2011,07,11,06,52,16.20
2011,07,11,06,53,16.20
2011,07,11,06,54,16.20
2011,07,11,06,55,16.30
2011,07,11,06,56,16.30
2011,07,11,06,57,16.30
2011,07,11,06,58,16.30
2011,07,11,06,59,16.30
2011,07,11,07,00,16.30
2011,07,11,07,01,16.30
2011,07,11,07,02,16.30
2011,07,11,07,03,16.30
2011,07,11,07,04,16.30
2011,07,11,07,05,16.30
2011,07,11,07,06,16.30
2011,07,11,07,07,16.30
2011,07,11,07,08,16.30
2011,07,11,07,09,16.30
2011,07,11,07,10,16.30
2011,07,11,07,11,16.30
2011,07,11,07,12,16.40
2011,07,11,07,13,16.40
2011,07,11,07,14,16.40
2011,07,11,07,15,16.40
2011,07,11,07,16,16.40
2011,07,11,07,17,16.40
2011,07,11,07,18,16.40
2011,07,11,07,19,16.40
2011,07,11,07,20,16.40
2011,07,11,07,21,16.40
2011,07,11,07,22,16.40
2011,07,11,07,23,16.40
2011,07,11,07,24,16.40
2011,07,11,07,25,16.40
2011,07,11,07,26,16.40
2011,07,11,07,27,16.40
2011,07,11,07,28,16.50
2011,07,11,07,29,16.50
2011,07,11,07,30,16.50
2011,07,11,07,31,16.50
2011,07,11,07,32,16.50
2011,07,11,07,33,16.50
2011,07,11,07,34,16.50
2011,07,11,07,35,16.50
2011,07,11,07,36,16.50
2011,07,11,07,37,16.50
2011,07,11,07,38,16.50
2011,07,11,07,39,16.50
2011,07,11,07,40,16.50
2011,07,11,07,41,16.50
2011,07,11,07,42,16.50
2011,07,11,07,43,16.50
2011,07,11,07,44,16.50
2011,07,11,07,45,16.50
2011,07,11,07,46,16.50
2011,07,11,07,47,16.50
2011,07,11,07,48,16.50
2011,07,11,07,49,16.50
2011,07,11,07,50,16.50
2011,07,11,07,51,16.50
2011,07,11,07,52,16.50
2011,07,11,07,53,16.50
2011,07,11,07,54,16.60
2011,07,11,07,55,16.50
2011,07,11,07,56,16.50
2011,07,11,07,57,16.50
2011,07,11,07,58,16.50
2011,07,11,07,59,16.50
2011,07,11,08,00,16.50
2011,07,11,08,01,16.50
2011,07,11,08,02,16.50
2011,07,11,08,03,16.50
2011,07,11,08,04,16.50
2011,07,11,08,05,16.50
2011,07,11,08,06,16.50
2011,07,11,08,07,16.50
2011,07,11,08,08,16.50
2011,07,11,08,09,16.50
2011,07,11,08,10,16.50
2011,07,11,08,11,16.60
2011,07,11,08,12,16.60
2011,07,11,08,13,16.60
2011,07,11,08,14,16.60
2011,07,11,08,15,16.60
2011,07,11,08,16,16.70
2011,07,11,08,17,16.70
2011,07,11,08,18,16.70
2011,07,11,08,19,16.70
2011,07,11,08,20,16.70
2011,07,11,08,21,16.70
2011,07,11,08,22,16.70
2011,07,11,08,23,16.70
2011,07,11,08,24,16.70
2011,07,11,08,25,16.70
2011,07,11,08,26,16.70
2011,07,11,08,27,16.70
2011,07,11,08,28,16.70
2011,07,11,08,29,16.70
2011,07,11,08,30,16.70
2011,07,11,08,31,16.70
2011,07,11,08,32,16.70
2011,07,11,08,33,16.80
2011,07,11,08,34,16.80
2011,07,11,08,35,16.80
2011,07,11,08,36,16.80
2011,07,11,08,37,16.80
2011,07,11,08,38,16.80
2011,07,11,08,39,16.80
2011,07,11,08,40,16.80
2011,07,11,08,41,16.80
2011,07,11,08,42,16.80
2011,07,11,08,43,16.80
2011,07,11,08,44,16.80
2011,07,11,08,45,16.90
2011,07,11,08,46,16.90
2011,07,11,08,47,16.90
2011,07,11,08,48,16.80
2011,07,11,08,49,16.80
2011,07,11,08,50,16.80
2011,07,11,08,51,16.80
2011,07,11,08,52,16.80
2011,07,11,08,53,16.80
2011,07,11,08,54,16.80
2011,07,11,08,55,16.80
2011,07,11,08,56,16.80
2011,07,11,08,57,16.80
2011,07,11,08,58,16.80
2011,07,11,08,59,16.80
2011,07,11,09,00,16.80
2011,07,11,09,01,16.90
2011,07,11,09,02,16.90
2011,07,11,09,03,16.90
2011,07,11,09,04,16.90
2011,07,11,09,05,16.90
2011,07,11,09,06,16.90
2011,07,11,09,07,16.90
2011,07,11,09,08,16.90
2011,07,11,09,09,17.00
2011,07,11,09,10,17.00
2011,07,11,09,11,17.00
2011,07,11,09,12,17.10
2011,07,11,09,13,17.10
2011,07,11,09,14,17.00
2011,07,11,09,15,17.00
2011,07,11,09,16,16.90
2011,07,11,09,17,16.90
2011,07,11,09,18,16.90
2011,07,11,09,19,16.90
2011,07,11,09,20,16.80
2011,07,11,09,21,16.80
2011,07,11,09,22,16.80
2011,07,11,09,23,16.80
2011,07,11,09,24,16.80
2011,07,11,09,25,16.80
2011,07,11,09,26,16.80
2011,07,11,09,27,16.80
2011,07,11,09,28,16.90
2011,07,11,09,29,16.90
2011,07,11,09,30,16.90
2011,07,11,09,31,16.90
2011,07,11,09,32,16.90
2011,07,11,09,33,16.90
2011,07,11,09,34,16.90
2011,07,11,09,35,16.90
2011,07,11,09,36,16.90
2011,07,11,09,37,17.00
2011,07,11,09,38,17.00
2011,07,11,09,39,17.00
2011,07,11,09,40,17.00
2011,07,11,09,41,16.90
2011,07,11,09,42,16.90
2011,07,11,09,43,16.90
2011,07,11,09,44,16.90
2011,07,11,09,45,16.80
2011,07,11,09,46,16.90
2011,07,11,09,47,16.90
2011,07,11,09,48,16.90
2011,07,11,09,49,16.80
2011,07,11,09,50,16.80
2011,07,11,09,51,16.80
2011,07,11,09,52,16.80
2011,07,11,09,53,16.80
2011,07,11,09,54,16.80
2011,07,11,09,55,16.80
2011,07,11,09,56,16.80
2011,07,11,09,57,16.80
2011,07,11,09,58,16.80
2011,07,11,09,59,16.80
2011,07,11,10,00,16.80
2011,07,11,10,01,16.80
2011,07,11,10,02,16.80
2011,07,11,10,03,16.80
2011,07,11,10,04,16.80
2011,07,11,10,05,16.80
2011,07,11,10,06,16.80
2011,07,11,10,07,16.80
2011,07,11,10,08,16.80
2011,07,11,10,09,16.80
2011,07,11,10,10,16.80
2011,07,11,10,11,16.90
2011,07,11,10,12,16.90
2011,07,11,10,13,17.00
2011,07,11,10,14,17.00
2011,07,11,10,15,17.00
2011,07,11,10,16,17.10
2011,07,11,10,17,17.10
2011,07,11,10,18,17.10
2011,07,11,10,19,17.10
2011,07,11,10,20,17.10
2011,07,11,10,21,17.00
2011,07,11,10,22,17.00
2011,07,11,10,23,17.00
2011,07,11,10,24,17.00
2011,07,11,10,25,17.00
2011,07,11,10,26,17.00
2011,07,11,10,27,17.00
2011,07,11,10,28,17.10
2011,07,11,10,29,17.10
2011,07,11,10,30,17.10
2011,07,11,10,31,17.10
2011,07,11,10,32,17.10
2011,07,11,10,33,17.10
2011,07,11,10,34,17.10
2011,07,11,10,35,17.10
2011,07,11,10,36,17.10
2011,07,11,10,37,17.10
2011,07,11,10,38,17.10
2011,07,11,10,39,17.10
2011,07,11,10,40,17.10
2011,07,11,10,41,17.00
2011,07,11,10,42,17.00
2011,07,11,10,43,16.90
2011,07,11,10,44,16.90
2011,07,11,10,45,16.80
2011,07,11,10,46,16.80
2011,07,11,10,47,16.80
2011,07,11,10,48,16.80
2011,07,11,10,49,16.80
2011,07,11,10,50,16.90
2011,07,11,10,51,16.90
2011,07,11,10,52,16.90
2011,07,11,10,53,17.00
2011,07,11,10,54,17.00
2011,07,11,10,55,17.00
2011,07,11,10,56,16.90
2011,07,11,10,57,16.90
2011,07,11,10,58,16.90
2011,07,11,10,59,16.90
2011,07,11,11,00,16.90
2011,07,11,11,01,16.90
2011,07,11,11,02,16.80
2011,07,11,11,03,16.80
2011,07,11,11,04,16.80
2011,07,11,11,05,16.80
2011,07,11,11,06,16.80
2011,07,11,11,07,16.80
2011,07,11,11,08,16.80
2011,07,11,11,09,16.80
2011,07,11,11,10,16.80
2011,07,11,11,11,16.80
2011,07,11,11,12,16.90
2011,07,11,11,13,16.90
2011,07,11,11,14,17.00
2011,07,11,11,15,17.00
2011,07,11,11,16,17.00
2011,07,11,11,17,17.00
2011,07,11,11,18,16.90
2011,07,11,11,19,16.90
2011,07,11,11,20,16.90
2011,07,11,11,21,16.90
2011,07,11,11,22,16.80
2011,07,11,11,23,16.80
2011,07,11,11,24,16.80
2011,07,11,11,25,16.80
2011,07,11,11,26,16.80
2011,07,11,11,27,16.80
2011,07,11,11,28,16.80
2011,07,11,11,29,16.80
2011,07,11,11,30,16.90
2011,07,11,11,31,16.90
2011,07,11,11,32,16.90
2011,07,11,11,33,17.00
2011,07,11,11,34,17.10
2011,07,11,11,35,17.10
2011,07,11,11,36,17.10
2011,07,11,11,37,17.10
2011,07,11,11,38,17.10
2011,07,11,11,39,17.10
2011,07,11,11,40,17.10
2011,07,11,11,41,17.10
2011,07,11,11,42,17.10
2011,07,11,11,43,17.20
2011,07,11,11,44,17.30
2011,07,11,11,45,17.30
2011,07,11,11,46,17.30
2011,07,11,11,47,17.30
2011,07,11,11,48,17.20
2011,07,11,11,49,17.20
2011,07,11,11,50,17.30
2011,07,11,11,51,17.40
2011,07,11,11,52,17.40
2011,07,11,11,53,17.50
2011,07,11,11,54,17.60
2011,07,11,11,55,17.60
2011,07,11,11,56,17.60
2011,07,11,11,57,17.50
2011,07,11,11,58,17.50
2011,07,11,11,59,17.40
2011,07,11,12,00,17.40
2011,07,11,12,01,17.40
2011,07,11,12,02,17.40
2011,07,11,12,03,17.40
2011,07,11,12,04,17.40
2011,07,11,12,05,17.40
2011,07,11,12,06,17.40
2011,07,11,12,07,17.40
2011,07,11,12,08,17.40
2011,07,11,12,09,17.40
2011,07,11,12,10,17.40
2011,07,11,12,11,17.40
2011,07,11,12,12,17.40
2011,07,11,12,13,17.50
2011,07,11,12,14,17.50
2011,07,11,12,15,17.50
2011,07,11,12,16,17.60
2011,07,11,12,17,17.60
2011,07,11,12,18,17.60
2011,07,11,12,19,17.60
2011,07,11,12,20,17.60
2011,07,11,12,21,17.60
2011,07,11,12,22,17.60
2011,07,11,12,23,17.60
2011,07,11,12,24,17.60
2011,07,11,12,25,17.60
2011,07,11,12,26,17.60
2011,07,11,12,27,17.60
2011,07,11,12,28,17.60
2011,07,11,12,29,17.60
2011,07,11,12,30,17.60
2011,07,11,12,31,17.50
2011,07,11,12,32,17.50
2011,07,11,12,33,17.60
2011,07,11,12,34,17.50
2011,07,11,12,35,17.50
2011,07,11,12,36,17.50
2011,07,11,12,37,17.40
2011,07,11,12,38,17.40
2011,07,11,12,39,17.40
2011,07,11,12,40,17.40
2011,07,11,12,41,17.40
2011,07,11,12,42,17.50
2011,07,11,12,43,17.50
2011,07,11,12,44,17.60
2011,07,11,12,45,17.60
2011,07,11,12,46,17.50
2011,07,11,12,47,17.50
2011,07,11,12,48,17.50
2011,07,11,12,49,17.50
2011,07,11,12,50,17.60
2011,07,11,12,51,17.60
2011,07,11,12,52,17.60
2011,07,11,12,53,17.70
2011,07,11,12,54,17.70
2011,07,11,12,55,17.80
2011,07,11,12,56,17.80
2011,07,11,12,57,17.80
2011,07,11,12,58,17.80
2011,07,11,12,59,17.90
2011,07,11,13,00,17.90
2011,07,11,13,01,17.90
2011,07,11,13,02,18.00
2011,07,11,13,03,18.00
2011,07,11,13,04,18.10
2011,07,11,13,05,18.10
2011,07,11,13,06,18.20
2011,07,11,13,07,18.20
2011,07,11,13,08,18.20
2011,07,11,13,09,18.20
2011,07,11,13,10,18.20
2011,07,11,13,11,18.10
2011,07,11,13,12,18.10
2011,07,11,13,13,18.00
2011,07,11,13,14,18.00
2011,07,11,13,15,18.10
2011,07,11,13,16,18.10
2011,07,11,13,17,18.10
2011,07,11,13,18,18.00
2011,07,11,13,19,18.00
2011,07,11,13,20,18.00
2011,07,11,13,21,18.00
2011,07,11,13,22,17.90
2011,07,11,13,23,17.80
2011,07,11,13,24,17.80
2011,07,11,13,25,17.80
2011,07,11,13,26,17.80
2011,07,11,13,27,17.80
2011,07,11,13,28,17.90
2011,07,11,13,29,17.80
2011,07,11,13,30,17.70
2011,07,11,13,31,17.70
2011,07,11,13,32,17.70
2011,07,11,13,33,17.70
2011,07,11,13,34,17.70
2011,07,11,13,35,17.60
2011,07,11,13,36,17.60
2011,07,11,13,37,17.60
2011,07,11,13,38,17.60
2011,07,11,13,39,17.60
2011,07,11,13,40,17.70
2011,07,11,13,41,17.70
2011,07,11,13,42,17.70
2011,07,11,13,43,17.70
2011,07,11,13,44,17.70
2011,07,11,13,45,17.70
2011,07,11,13,46,17.80
2011,07,11,13,47,17.80
2011,07,11,13,48,17.80
2011,07,11,13,49,17.80
2011,07,11,13,50,17.80
2011,07,11,13,51,17.80
2011,07,11,13,52,17.80
2011,07,11,13,53,17.90
2011,07,11,13,54,17.90
2011,07,11,13,55,18.00
2011,07,11,13,56,18.00
2011,07,11,13,57,18.10
2011,07,11,13,58,18.10
2011,07,11,13,59,18.20
2011,07,11,14,00,18.20
2011,07,11,14,01,18.20
2011,07,11,14,02,18.20
2011,07,11,14,03,18.20
2011,07,11,14,04,18.20
2011,07,11,14,05,18.20
2011,07,11,14,06,18.10
2011,07,11,14,07,18.20
2011,07,11,14,08,18.10
2011,07,11,14,09,18.20
2011,07,11,14,10,18.20
2011,07,11,14,11,18.30
2011,07,11,14,12,18.30
2011,07,11,14,13,18.30
2011,07,11,14,14,18.30
2011,07,11,14,15,18.30
2011,07,11,14,16,18.30
2011,07,11,14,17,18.30
2011,07,11,14,18,18.30
2011,07,11,14,19,18.40
2011,07,11,14,20,18.40
2011,07,11,14,21,18.40
2011,07,11,14,22,18.40
2011,07,11,14,23,18.40
2011,07,11,14,24,18.40
2011,07,11,14,25,18.40
2011,07,11,14,26,18.40
2011,07,11,14,27,18.50
2011,07,11,14,28,18.50
2011,07,11,14,29,18.60
2011,07,11,14,30,18.60
2011,07,11,14,31,18.60
2011,07,11,14,32,18.70
2011,07,11,14,33,18.70
2011,07,11,14,34,18.60
2011,07,11,14,35,18.60
2011,07,11,14,36,18.60
2011,07,11,14,37,18.60
2011,07,11,14,38,18.60
2011,07,11,14,39,18.60
2011,07,11,14,40,18.60
2011,07,11,14,41,18.60
2011,07,11,14,42,18.60
2011,07,11,14,43,18.60
2011,07,11,14,44,18.60
2011,07,11,14,45,18.60
2011,07,11,14,46,18.60
2011,07,11,14,47,18.60
2011,07,11,14,48,18.60
2011,07,11,14,49,18.60
2011,07,11,14,50,18.60
2011,07,11,14,51,18.60
2011,07,11,14,52,18.70
2011,07,11,14,53,18.70
2011,07,11,14,54,18.70
2011,07,11,14,55,18.80
2011,07,11,14,56,18.80
2011,07,11,14,57,18.80
2011,07,11,14,58,18.80
2011,07,11,14,59,18.80
2011,07,11,15,00,18.90
2011,07,11,15,01,18.90
2011,07,11,15,02,19.00
2011,07,11,15,03,19.10
2011,07,11,15,04,19.10
2011,07,11,15,05,19.10
2011,07,11,15,06,19.10
2011,07,11,15,07,19.10
2011,07,11,15,08,19.20
2011,07,11,15,09,19.20
2011,07,11,15,10,19.10
2011,07,11,15,11,19.10
2011,07,11,15,12,19.10
2011,07,11,15,13,19.10
2011,07,11,15,14,19.10
2011,07,11,15,15,19.00
2011,07,11,15,16,19.00
2011,07,11,15,17,19.00
2011,07,11,15,18,18.90
2011,07,11,15,19,18.90
2011,07,11,15,20,18.90
2011,07,11,15,21,18.90
2011,07,11,15,22,18.80
2011,07,11,15,23,18.80
2011,07,11,15,24,18.70
2011,07,11,15,25,18.60
2011,07,11,15,26,18.60
2011,07,11,15,27,18.50
2011,07,11,15,28,18.40
2011,07,11,15,29,18.40
2011,07,11,15,30,18.30
2011,07,11,15,31,18.30
2011,07,11,15,32,18.30
2011,07,11,15,33,18.30
2011,07,11,15,34,18.20
2011,07,11,15,35,18.20
2011,07,11,15,36,18.20
2011,07,11,15,37,18.20
2011,07,11,15,38,18.20
2011,07,11,15,39,18.20
2011,07,11,15,40,18.20
2011,07,11,15,41,18.20
2011,07,11,15,42,18.20
2011,07,11,15,43,18.20
2011,07,11,15,44,18.20
2011,07,11,15,45,18.20
2011,07,11,15,46,18.20
2011,07,11,15,47,18.30
2011,07,11,15,48,18.30
2011,07,11,15,49,18.30
2011,07,11,15,50,18.30
2011,07,11,15,51,18.30
2011,07,11,15,52,18.40
2011,07,11,15,53,18.40
2011,07,11,15,54,18.40
2011,07,11,15,55,18.50
2011,07,11,15,56,18.50
2011,07,11,15,57,18.60
2011,07,11,15,58,18.60
2011,07,11,15,59,18.70
2011,07,11,16,00,18.70
2011,07,11,16,01,18.70
2011,07,11,16,02,18.70
2011,07,11,16,03,18.80
2011,07,11,16,04,18.80
2011,07,11,16,05,18.80
2011,07,11,16,06,18.80
2011,07,11,16,07,18.70
2011,07,11,16,08,18.70
2011,07,11,16,09,18.70
2011,07,11,16,10,18.60
2011,07,11,16,11,18.60
2011,07,11,16,12,18.60
2011,07,11,16,13,18.50
2011,07,11,16,14,18.50
2011,07,11,16,15,18.40
2011,07,11,16,16,18.40
2011,07,11,16,17,18.40
2011,07,11,16,18,18.40
2011,07,11,16,19,18.40
2011,07,11,16,20,18.30
2011,07,11,16,21,18.30
2011,07,11,16,22,18.30
2011,07,11,16,23,18.30
2011,07,11,16,24,18.30
2011,07,11,16,25,18.30
2011,07,11,16,26,18.30
2011,07,11,16,27,18.30
2011,07,11,16,28,18.30
2011,07,11,16,29,18.30
2011,07,11,16,30,18.30
2011,07,11,16,31,18.30
2011,07,11,16,32,18.30
2011,07,11,16,33,18.30
2011,07,11,16,34,18.30
2011,07,11,16,35,18.20
2011,07,11,16,36,18.20
2011,07,11,16,37,18.10
2011,07,11,16,38,18.10
2011,07,11,16,39,18.10
2011,07,11,16,40,18.00
2011,07,11,16,41,18.00
2011,07,11,16,42,18.00
2011,07,11,16,43,18.00
2011,07,11,16,44,17.90
2011,07,11,16,45,17.90
2011,07,11,16,46,17.90
2011,07,11,16,47,17.90
2011,07,11,16,48,17.90
2011,07,11,16,49,17.90
2011,07,11,16,50,17.90
2011,07,11,16,51,17.90
2011,07,11,16,52,17.80
2011,07,11,16,53,17.80
2011,07,11,16,54,17.80
2011,07,11,16,55,17.80
2011,07,11,16,56,17.80
2011,07,11,16,57,17.80
2011,07,11,16,58,17.70
2011,07,11,16,59,17.70
2011,07,11,17,00,17.70
2011,07,11,17,01,17.70
2011,07,11,17,02,17.70
2011,07,11,17,03,17.70
2011,07,11,17,04,17.80
2011,07,11,17,05,17.80
2011,07,11,17,06,17.80
2011,07,11,17,07,17.90
2011,07,11,17,08,17.90
2011,07,11,17,09,17.90
2011,07,11,17,10,18.00
2011,07,11,17,11,18.00
2011,07,11,17,12,18.00
2011,07,11,17,13,18.00
2011,07,11,17,14,18.00
2011,07,11,17,15,18.00
2011,07,11,17,16,18.00
2011,07,11,17,17,18.00
2011,07,11,17,18,18.10
2011,07,11,17,19,18.10